Dewpoint
66 70 72 73 73 73 72 72 72 72 73 74 74 74 74 73 73 73 73 74 74 75 74 73 73 73 73 73 73 73 73 72 72 71 72 72 71 71 72 72 71 70 71
67 70 71 72 73 73 72 72 72 72 73 74 74 74 74 73 73 73 73 74 74 74 73 73 73 73 73 73 72 72 72 71 71 71 71 72 71 71 71 71 71 70 71
68 70 71 71 72 73 73 72 72 73 73 73 74 74 74 74 73 73 73 73 74 74 73 72 72 72 72 71 71 71 71 71 70 71 71 69 68 70 71 71 71 71 70
69 70 70 71 71 73 72 72 72 73 73 73 73 74 74 74 73 73 73 73 74 74 73 72 71 72 72 71 71 71 71 71 71 71 69 69 68 70 70 70 70 70 70
69 70 71 71 72 72 72 72 72 72 72 72 73 73 73 73 73 73 73 73 74 73 73 72 72 72 71 70 70 70 71 71 70 69 69 68 68 69 70 70 70 70 70
69 70 70 71 71 72 72 72 72 72 71 72 72 73 73 73 73 73 72 73 74 73 73 72 70 71 70 70 70 70 70 69 68 68 68 68 68 69 70 70 70 70 70
69 70 70 70 71 71 72 72 72 71 71 71 72 72 73 73 73 72 72 72 73 73 72 72 71 70 69 70 70 69 68 68 67 67 67 68 67 69 69 70 70 70 70
68 69 70 71 71 71 71 71 71 71 71 71 71 72 73 72 72 72 72 71 72 71 71 70 70 69 69 69 69 68 67 67 67 66 66 67 68 69 69 69 69 70 70
67 68 69 70 70 70 69 69 69 70 70 70 71 71 71 71 71 71 71 71 71 70 69 69 69 69 69 69 68 66 66 67 66 66 66 67 69 69 69 69 69 69 69
67 68 68 69 70 69 69 68 69 69 69 69 70 70 70 70 70 70 70 70 70 69 69 69 68 68 68 68 66 66 66 66 66 65 66 67 68 69 69 68 68 69 68
65 65 67 67 67 68 69 69 69 70 69 69 69 69 68 68 68 69 69 69 69 67 68 68 68 67 67 67 66 66 66 66 65 65 65 66 68 69 69 68 68 68 68
62 64 66 66 66 66 67 68 68 69 69 69 69 68 68 67 67 67 67 68 68 67 67 67 67 66 65 65 65 66 65 65 65 64 66 66 69 68 69 68 68 68 68
64 64 65 64 65 65 65 67 68 67 68 68 68 67 66 66 66 65 66 65 65 66 66 65 64 63 63 64 65 64 64 64 65 64 65 66 67 68 68 68 67 67 66
64 65 64 65 65 65 66 66 66 66 66 67 66 65 67 67 66 64 65 63 63 63 64 64 64 63 63 64 64 64 63 64 64 64 64 65 66 68 68 67 67 67 66
61 65 65 65 65 65 65 65 65 65 66 66 66 66 67 67 66 65 64 64 62 62 63 63 62 63 63 64 64 63 63 63 63 64 65 64 64 67 68 67 67 66 66
49 60 66 65 65 64 65 65 64 65 65 65 66 66 67 66 65 64 64 64 63 63 62 62 62 63 63 63 63 63 63 63 63 63 64 64 63 64 66 66 66 65 65
32 46 62 66 65 64 65 64 64 65 64 64 64 65 65 65 64 63 63 62 62 62 62 60 62 62 62 63 62 63 62 62 63 63 63 63 63 62 64 65 65 65 65
24 36 48 65 66 65 65 65 64 64 64 64 64 65 65 64 63 63 62 62 62 62 62 61 61 61 62 61 62 62 62 62 62 62 62 63 62 62 62 63 64 64 64
21 28 44 62 66 66 65 65 65 64 64 64 64 64 64 63 63 62 62 62 62 62 62 62 61 61 60 61 61 61 61 61 61 62 61 62 61 60 60 61 61 62 62
38 23 31 56 65 66 66 66 66 65 65 65 64 64 64 63 62 62 62 62 62 62 62 62 61 61 61 61 61 60 60 61 61 61 61 61 60 59 59 59 60 59 60
47 39 27 47 63 66 66 64 64 63 64 65 64 64 64 63 63 63 62 61 62 61 61 61 61 60 60 61 59 57 57 59 60 60 60 59 59 58 58 58 57 57 59
47 48 45 37 59 65 64 65 64 64 64 64 64 64 64 64 63 63 62 62 61 61 61 61 61 60 60 61 58 56 53 55 57 59 60 59 58 57 57 57 57 56 57
45 47 48 50 54 64 64 65 61 63 62 61 62 63 63 64 63 63 62 61 61 61 60 61 61 60 59 60 59 56 51 51 54 56 58 58 57 57 57 57 57 56 56
44 46 47 50 53 63 64 64 62 61 60 61 62 62 63 63 63 63 62 61 60 62 61 61 61 60 59 58 58 58 56 55 53 51 55 56 56 56 56 56 57 56 56
43 44 47 50 55 62 64 63 62 61 61 61 61 56 60 62 62 62 62 60 61 61 61 60 60 60 60 58 58 57 56 55 55 53 51 52 54 55 55 56 56 56 56
43 44 45 49 58 63 63 63 61 60 58 60 61 60 61 61 61 62 62 61 61 60 60 60 60 60 59 59 59 58 56 54 53 53 52 53 53 53 55 55 55 56 56
Lifted_Index
-1 -2 -3 -3 -3 -4 -4 -4 -4 -4 -4 -5 -5 -5 -5 -4 -4 -4 -4 -5 -5 -6 -5 -5 -5 -5 -5 -5 -5 -5 -4 -4 -5 -5 -6 -6 -6 -6 -6 -6 -5 -5 -5
-1 -2 -3 -3 -4 -4 -4 -4 -4 -4 -4 -5 -5 -5 -5 -4 -4 -4 -4 -5 -5 -6 -5 -5 -5 -5 -5 -4 -4 -4 -4 -4 -5 -5 -6 -6 -6 -6 -6 -6 -5 -5 -5
-2 -2 -3 -3 -4 -4 -4 -4 -4 -4 -5 -5 -5 -5 -5 -5 -5 -4 -4 -5 -5 -5 -5 -5 -4 -4 -4 -4 -4 -4 -4 -4 -5 -5 -6 -6 -6 -6 -6 -6 -5 -5 -5
-2 -3 -3 -4 -4 -4 -4 -4 -5 -5 -5 -5 -5 -5 -5 -5 -5 -5 -5 -5 -5 -5 -5 -4 -4 -4 -4 -4 -4 -4 -4 -5 -5 -5 -5 -5 -5 -6 -6 -6 -5 -5 -5
-3 -3 -3 -4 -5 -5 -5 -5 -5 -5 -5 -5 -5 -5 -5 -5 -5 -5 -5 -5 -5 -5 -5 -5 -4 -4 -3 -3 -4 -4 -5 -5 -5 -5 -5 -5 -5 -6 -6 -5 -5 -5 -5
-3 -3 -4 -4 -5 -5 -5 -5 -5 -5 -5 -5 -5 -5 -5 -5 -5 -5 -5 -5 -5 -5 -5 -5 -4 -3 -3 -3 -4 -4 -4 -5 -5 -5 -5 -5 -5 -5 -5 -5 -5 -5 -5
-3 -4 -4 -5 -5 -5 -5 -5 -5 -5 -4 -5 -5 -5 -5 -5 -5 -5 -5 -5 -5 -5 -5 -4 -3 -3 -3 -3 -4 -4 -4 -4 -4 -5 -5 -5 -5 -5 -5 -5 -5 -5 -5
-4 -4 -4 -5 -5 -5 -6 -5 -5 -5 -4 -5 -5 -5 -5 -5 -5 -4 -5 -5 -5 -4 -4 -3 -3 -3 -3 -3 -4 -4 -3 -3 -4 -4 -5 -5 -5 -5 -5 -5 -5 -5 -5
-4 -4 -5 -5 -5 -5 -5 -5 -5 -5 -5 -5 -5 -5 -5 -5 -4 -4 -4 -5 -4 -3 -3 -3 -3 -3 -3 -3 -3 -3 -3 -3 -3 -4 -4 -4 -5 -5 -5 -5 -5 -5 -4
-4 -4 -4 -5 -5 -5 -5 -5 -5 -5 -5 -5 -5 -5 -5 -5 -4 -4 -4 -4 -4 -3 -2 -2 -2 -3 -3 -3 -2 -2 -2 -2 -2 -3 -3 -4 -5 -5 -5 -5 -5 -4 -4
-3 -3 -4 -4 -4 -5 -5 -5 -5 -5 -5 -5 -5 -5 -5 -5 -4 -4 -4 -4 -3 -2 -2 -2 -2 -2 -2 -2 -2 -1 -1 -1 -1 -2 -2 -3 -4 -5 -5 -5 -4 -4 -4
-3 -3 -3 -4 -4 -4 -4 -5 -5 -5 -5 -5 -5 -5 -5 -5 -4 -4 -3 -3 -3 -2 -2 -2 -2 -2 -2 -2 -1 -0 -0 0 -0 -1 -2 -3 -4 -5 -5 -4 -4 -4 -3
-4 -4 -3 -3 -4 -4 -4 -4 -5 -5 -5 -5 -5 -6 -6 -5 -4 -4 -3 -3 -3 -2 -2 -2 -2 -2 -1 -1 -1 -0 0 1 0 -1 -2 -3 -4 -4 -4 -4 -4 -3 -3
-4 -4 -4 -4 -4 -4 -4 -4 -4 -5 -5 -5 -6 -6 -6 -5 -4 -4 -3 -3 -3 -2 -2 -2 -2 -2 -1 -1 -0 0 1 1 0 -0 -1 -2 -3 -4 -4 -4 -3 -3 -3
-2 -4 -5 -5 -4 -4 -4 -4 -4 -4 -4 -5 -5 -5 -5 -5 -5 -4 -3 -3 -2 -2 -2 -2 -2 -1 -1 -1 -0 0 1 1 1 0 -1 -2 -2 -3 -3 -3 -3 -2 -2
3 -1 -4 -5 -5 -5 -5 -4 -4 -4 -4 -4 -4 -5 -5 -5 -5 -4 -3 -2 -2 -2 -2 -2 -1 -1 -1 -1 -0 0 1 1 1 0 -1 -1 -1 -2 -2 -3 -2 -2 -2
6 3 -1 -5 -6 -6 -6 -5 -5 -4 -4 -4 -4 -4 -5 -5 -5 -3 -2 -2 -2 -2 -2 -2 -1 -1 -1 -1 -0 0 1 1 1 0 -0 -1 -1 -1 -1 -2 -2 -2 -1
6 5 1 -4 -6 -7 -7 -6 -6 -5 -4 -4 -4 -4 -5 -5 -5 -3 -2 -2 -2 -2 -2 -1 -1 -1 -1 -0 0 0 1 1 1 0 -0 -1 -1 -1 -1 -1 -2 -1 -1
5 5 2 -3 -6 -7 -8 -7 -7 -6 -5 -5 -4 -4 -5 -5 -5 -4 -3 -2 -2 -2 -2 -1 -1 -1 -0 -0 0 1 1 1 1 1 0 -0 -1 -1 -0 -1 -1 -1 -1
4 4 3 -1 -6 -8 -8 -8 -7 -7 -6 -6 -5 -5 -5 -5 -5 -4 -4 -3 -3 -2 -2 -2 -1 -0 -0 0 1 1 1 1 1 1 0 0 0 0 1 0 0 0 0
3 3 3 0 -5 -8 -8 -8 -8 -8 -8 -7 -6 -6 -6 -6 -6 -5 -5 -4 -3 -3 -2 -2 -1 -0 -0 0 1 1 1 1 1 1 1 1 1 1 2 2 2 2 2
2 2 3 1 -3 -7 -8 -8 -8 -8 -8 -8 -7 -6 -6 -6 -6 -6 -5 -4 -4 -3 -2 -2 -2 -1 -0 -0 0 1 1 1 1 1 1 1 1 2 3 3 3 3 3
1 2 2 2 -2 -6 -8 -8 -8 -7 -7 -7 -7 -6 -5 -6 -6 -6 -6 -5 -4 -3 -2 -2 -2 -1 -1 -0 0 1 1 1 1 1 1 1 2 3 3 4 3 4 4
1 1 1 1 -1 -6 -8 -8 -8 -7 -7 -6 -6 -4 -3 -4 -5 -6 -6 -5 -4 -3 -2 -2 -2 -1 -1 -1 -0 0 0 1 1 1 2 2 2 3 3 4 4 4 4
-0 -0 -0 -1 -3 -6 -8 -8 -7 -7 -6 -6 -5 -3 -2 -3 -4 -5 -5 -4 -3 -3 -2 -2 -1 -1 -1 -1 -1 -0 0 0 1 1 1 2 3 3 4 4 4 4 5
-1 -1 -1 -2 -4 -7 -8 -8 -7 -6 -6 -6 -5 -3 -2 -3 -4 -5 -5 -4 -3 -3 -2 -2 -1 -1 -1 -1 -1 -0 -0 0 1 1 1 2 3 3 4 4 4 5 5